Chicopee, MA

7:21 AM EDT on July 28, 2016 (GMT -0400)
Westover Air Reserve Base / Metropolitan Airport

Weather History for KCEF - May, 2013

Change the Weather History Date:

Sunday, May 19, 2013

  Actual Average Record
Temperature  
Mean Temperature 53 °F -  
Max Temperature 64 °F 65 °F 82 °F (1998)
Min Temperature 42 °F 46 °F 35 °F (2003)
Degree Days  
Heating Degree Days 12    
Growing Degree Days 3 (Base 50)    
Moisture  
Dew Point 53 °F    
Average Humidity 92    
Maximum Humidity 100    
Minimum Humidity 64    
Precipitation  
Precipitation 0.17 in - - ()
Sea Level Pressure  
Sea Level Pressure 30.28 in    
Wind  
Wind Speed 4 mph (South)    
Max Wind Speed 14 mph    
Max Gust Speed -    
Visibility 7 miles    
Events Rain    
Averages and records for this station are not official NWS values.
T = Trace of Precipitation, MM = Missing Value Source: NWS Daily Summary

Daily Weather History Graph

Daily Weather History Graph

Search for Another Location

Airport or City:

Trip Planner

Search our weather history database for the weather conditions in past years. The results will help you decide how hot, cold, wet, or windy it might be!

Date:

Astronomy

May. 19, 2013 Rise Set
Actual Time 5:25 AM EDT 8:08 PM EDT
Civil Twilight 4:52 AM EDT 8:41 PM EDT
Nautical Twilight 4:11 AM EDT 9:22 PM EDT
Astronomical Twilight 3:25 AM EDT 10:09 PM EDT
Moon 2:03 PM EDT (5/19) 1:54 AM EDT (5/19)
Length of Visible Light 15h 48m
Length of Day
14h 43m
Waxing Gibbous, 65% of the Moon is Illuminated
May 19
Waxing Gibbous
May 25
Full
May 31
Last Quarter
Jun 8
New
Jun 16
First Quarter

Hourly Weather History & Observations

Time (EDT) Temp. Windchill Dew Point Humidity Pressure Visibility Wind Dir Wind Speed Gust Speed Precip Events Conditions
12:58 AM 52.5 °F - 46.2 °F 79% 30.32 in 10.0 mi SSE 3.5 mph - N/A   Clear
1:58 AM 51.3 °F - 47.8 °F 88% 30.31 in 10.0 mi SSE 3.5 mph - N/A   Clear
2:58 AM 48.9 °F - 47.8 °F 96% 30.31 in 10.0 mi ESE 1.2 mph - N/A   Clear
3:58 AM 46.8 °F - 46.2 °F 98% 30.31 in 10.0 mi Calm Calm - N/A   Clear
4:08 AM 44.6 °F - 44.6 °F 100% 30.30 in 2.5 mi NE 2.3 mph - N/A   Clear
4:10 AM 44.6 °F 43.1 °F 44.6 °F 100% 30.30 in 2.0 mi NE 3.5 mph - N/A   Clear
4:15 AM 46.4 °F - 44.6 °F 93% 30.30 in 2.5 mi NNE 1.2 mph - N/A   Clear
4:16 AM 46.4 °F - 44.6 °F 93% 30.30 in 3.0 mi Calm Calm - N/A   Clear
4:58 AM 44.8 °F - 44.2 °F 98% 30.32 in 10.0 mi Calm Calm - N/A   Clear
5:44 AM 44.6 °F - 44.6 °F 100% 30.31 in 1.8 mi Calm Calm - N/A   Clear
5:45 AM 44.6 °F - 44.6 °F 100% 30.31 in 1.2 mi Calm Calm - N/A   Clear
5:47 AM 44.6 °F - 44.6 °F 100% 30.31 in 1.0 mi Calm Calm - N/A   Clear
5:50 AM 44.6 °F - 44.6 °F 100% 30.31 in 0.8 mi North 2.3 mph - N/A   Clear
5:51 AM 44.6 °F - 44.6 °F 100% 30.32 in 0.8 mi North 2.3 mph - N/A   Clear
5:52 AM 44.6 °F - 42.8 °F 93% 30.32 in 0.8 mi North 1.2 mph - N/A   Clear
5:53 AM 44.6 °F - 42.8 °F 93% 30.32 in 0.8 mi North 1.2 mph - N/A   Clear
5:55 AM 42.8 °F - 42.8 °F 100% 30.32 in 1.0 mi NNE 1.2 mph - N/A   Clear
5:56 AM 42.8 °F - 42.8 °F 100% 30.32 in 1.2 mi NNE 1.2 mph - N/A   Clear
5:58 AM 43.3 °F - 42.8 °F 98% 30.34 in 1.5 mi Calm Calm - N/A   Partly Cloudy
5:59 AM 42.8 °F - 42.8 °F 100% 30.32 in 1.8 mi Calm Calm - N/A   Partly Cloudy
6:00 AM 42.8 °F - 42.8 °F 100% 30.32 in 3.0 mi Calm Calm - N/A   Partly Cloudy
6:03 AM 44.6 °F - 42.8 °F 93% 30.32 in 2.5 mi NNE 1.2 mph - N/A   Partly Cloudy
6:11 AM 44.6 °F - 44.6 °F 100% 30.32 in 3.0 mi Calm Calm - N/A   Clear
6:58 AM 49.6 °F - 49.3 °F 99% 30.35 in 10.0 mi Calm Calm - N/A   Overcast
7:29 AM 53.6 °F - 50.0 °F 88% 30.33 in 10.0 mi WNW 1.2 mph - N/A   Light Drizzle
7:58 AM 55.2 °F - 49.6 °F 81% 30.35 in 10.0 mi Variable 1.2 mph - N/A   Mostly Cloudy
8:58 AM 60.3 °F - 50.9 °F 71% 30.35 in 10.0 mi SW 6.9 mph - N/A   Mostly Cloudy
9:58 AM 61.2 °F - 52.0 °F 72% 30.36 in 10.0 mi SW 6.9 mph - N/A   Overcast
10:58 AM 61.9 °F - 52.2 °F 70% 30.36 in 10.0 mi South 9.2 mph - N/A   Mostly Cloudy
11:58 AM 63.7 °F - 52.5 °F 67% 30.35 in 10.0 mi South 9.2 mph - N/A   Overcast
12:13 PM 64.4 °F - 51.8 °F 64% 30.32 in 10.0 mi South 8.1 mph - N/A   Overcast
12:21 PM 64.4 °F - 51.8 °F 64% 30.32 in 10.0 mi SSW 10.4 mph - N/A   Overcast
12:22 PM 64.4 °F - 51.8 °F 64% 30.32 in 10.0 mi South 10.4 mph - N/A   Overcast
12:24 PM 64.4 °F - 51.8 °F 64% 30.32 in 10.0 mi South 10.4 mph - N/A   Overcast
12:31 PM 64.4 °F - 53.6 °F 68% 30.32 in 10.0 mi SW 10.4 mph - N/A   Overcast
12:50 PM 64.4 °F - 53.6 °F 68% 30.32 in 10.0 mi SSW 13.8 mph - N/A   Overcast
12:52 PM 64.4 °F - 53.6 °F 68% 30.32 in 10.0 mi SSW 13.8 mph - N/A   Overcast
12:58 PM 64.0 °F - 53.1 °F 67% 30.33 in 10.0 mi South 11.5 mph - N/A   Overcast
1:02 PM 64.4 °F - 53.6 °F 68% 30.31 in 10.0 mi South 9.2 mph - N/A   Overcast
1:32 PM 62.6 °F - 51.8 °F 68% 30.30 in 10.0 mi South 9.2 mph - N/A   Overcast
1:33 PM 62.6 °F - 53.6 °F 72% 30.30 in 10.0 mi South 8.1 mph - N/A Rain Light Rain
1:58 PM 60.8 °F - 55.0 °F 81% 30.32 in 10.0 mi South 9.2 mph - 0.00 in   Light Drizzle
2:06 PM 60.8 °F - 55.4 °F 82% 30.30 in 10.0 mi South 8.1 mph - N/A   Overcast
2:15 PM 60.8 °F - 55.4 °F 82% 30.29 in 10.0 mi South 8.1 mph - N/A   Overcast
2:17 PM 60.8 °F - 55.4 °F 82% 30.29 in 10.0 mi South 9.2 mph - N/A   Overcast
2:20 PM 60.8 °F - 53.6 °F 77% 30.29 in 10.0 mi South 8.1 mph - N/A   Overcast
2:26 PM 60.8 °F - 55.4 °F 82% 30.29 in 10.0 mi South 9.2 mph - N/A   Overcast
2:29 PM 60.8 °F - 55.4 °F 82% 30.29 in 10.0 mi South 9.2 mph - N/A   Light Drizzle
2:35 PM 60.8 °F - 55.4 °F 82% 30.29 in 10.0 mi SSW 5.8 mph - N/A   Light Drizzle
2:38 PM 60.8 °F - 55.4 °F 82% 30.29 in 10.0 mi South 9.2 mph - N/A   Light Drizzle
2:58 PM 60.1 °F - 55.8 °F 86% 30.31 in 10.0 mi SSW 8.1 mph - 0.00 in   Light Drizzle
3:16 PM 59.0 °F - 57.2 °F 94% 30.29 in 10.0 mi South 9.2 mph - N/A Rain Light Rain
3:58 PM 58.3 °F - 57.2 °F 96% 30.29 in 9.0 mi South 6.9 mph - 0.01 in Rain Light Rain
4:14 PM 57.2 °F - 57.2 °F 100% 30.28 in 9.0 mi South 8.1 mph - N/A Rain Light Rain
4:29 PM 57.2 °F - 57.2 °F 100% 30.28 in 10.0 mi South 6.9 mph - N/A Rain Light Rain
4:38 PM 57.2 °F - 57.2 °F 100% 30.27 in 8.0 mi South 8.1 mph - N/A Rain Light Rain
4:50 PM 57.2 °F - 57.2 °F 100% 30.27 in 6.0 mi SSE 5.8 mph - N/A Rain Light Rain
4:51 PM 57.2 °F - 57.2 °F 100% 30.27 in 6.0 mi SSE 6.9 mph - N/A Rain Light Rain
4:54 PM 57.2 °F - 57.2 °F 100% 30.27 in 6.0 mi South 8.1 mph - N/A Rain Light Rain
4:56 PM 57.2 °F - 57.2 °F 100% 30.27 in 6.0 mi South 8.1 mph - N/A Rain Light Rain
4:57 PM 57.2 °F - 57.2 °F 100% 30.27 in 6.0 mi South 9.2 mph - N/A Rain Light Rain
4:58 PM 57.2 °F - 57.2 °F 100% 30.29 in 6.0 mi South 9.2 mph - 0.06 in Rain Light Rain
5:05 PM 57.2 °F - 57.2 °F 100% 30.27 in 7.0 mi SSE 10.4 mph - N/A Rain Light Rain
5:15 PM 57.2 °F - 57.2 °F 100% 30.27 in 6.0 mi South 6.9 mph - N/A Rain Light Rain
5:58 PM 56.7 °F - 56.1 °F 98% 30.29 in 5.0 mi SSE 8.1 mph - 0.06 in Rain Light Rain
6:00 PM 57.2 °F - 55.4 °F 94% 30.26 in 5.0 mi Variable 6.9 mph - N/A Rain Light Rain
6:05 PM 55.4 °F - 55.4 °F 100% 30.26 in 5.0 mi SSE 9.2 mph - N/A Rain Light Rain
6:20 PM 55.4 °F - 55.4 °F 100% 30.26 in 10.0 mi SSE 6.9 mph - N/A   Light Drizzle
6:58 PM 55.4 °F - 55.4 °F 100% 30.27 in 7.0 mi East 2.3 mph - 0.01 in Rain Light Rain
7:05 PM 55.4 °F - 55.4 °F 100% 30.26 in 10.0 mi Variable 2.3 mph - N/A   Overcast
7:09 PM 55.4 °F - 55.4 °F 100% 30.26 in 10.0 mi Variable 4.6 mph - N/A   Overcast
7:22 PM 55.4 °F - 55.4 °F 100% 30.26 in 7.0 mi SSE 4.6 mph - N/A   Overcast
7:23 PM 55.4 °F - 55.4 °F 100% 30.26 in 7.0 mi SSE 4.6 mph - N/A   Overcast
7:35 PM 55.4 °F - 55.4 °F 100% 30.25 in 8.0 mi SSE 6.9 mph - N/A   Overcast
7:58 PM 55.2 °F - 55.0 °F 99% 30.27 in 7.0 mi SE 3.5 mph - 0.00 in   Overcast
8:02 PM 55.4 °F - 55.4 °F 100% 30.25 in 7.0 mi SE 3.5 mph - N/A   Overcast
8:11 PM 55.4 °F - 55.4 °F 100% 30.24 in 9.0 mi Variable 3.5 mph - N/A   Overcast
8:15 PM 55.4 °F - 55.4 °F 100% - 5.0 mi SSE 4.6 mph - N/A   Light Drizzle
8:58 PM 55.4 °F - 55.0 °F 99% 30.26 in 6.0 mi Calm Calm - 0.01 in   Light Drizzle
9:22 PM 55.4 °F - 55.4 °F 100% 30.23 in 8.0 mi South 5.8 mph - N/A   Overcast
9:23 PM 55.4 °F - 55.4 °F 100% 30.23 in 8.0 mi South 6.9 mph - N/A   Overcast
9:36 PM 55.4 °F - 55.4 °F 100% 30.23 in 10.0 mi South 6.9 mph - N/A   Overcast
9:44 PM 55.4 °F - 55.4 °F 100% 30.23 in 10.0 mi South 5.8 mph - N/A   Overcast
9:58 PM 55.8 °F - 55.4 °F 99% 30.25 in 10.0 mi South 4.6 mph - N/A   Overcast
10:26 PM 55.4 °F - 55.4 °F 100% 30.22 in 10.0 mi SSE 3.5 mph - N/A   Overcast
10:34 PM 55.4 °F - 55.4 °F 100% 30.22 in 10.0 mi SSE 3.5 mph - N/A   Overcast
10:43 PM 55.4 °F - 55.4 °F 100% 30.23 in 8.0 mi SSE 1.2 mph - N/A   Light Drizzle
10:44 PM 55.4 °F - 55.4 °F 100% 30.22 in 7.0 mi Variable 2.3 mph - N/A   Light Drizzle
10:53 PM 55.4 °F - 55.4 °F 100% 30.22 in 5.0 mi South 2.3 mph - N/A   Overcast
10:58 PM 55.4 °F - 55.4 °F 100% 30.24 in 5.0 mi South 2.3 mph - 0.01 in   Light Drizzle
11:01 PM 55.4 °F - 55.4 °F 100% 30.22 in 5.0 mi South 2.3 mph - N/A   Light Drizzle
11:05 PM 55.4 °F - 55.4 °F 100% 30.22 in 4.0 mi South 2.3 mph - N/A   Overcast
11:07 PM 55.4 °F - 55.4 °F 100% 30.22 in 4.0 mi South 4.6 mph - N/A   Light Drizzle
11:16 PM 55.4 °F - 55.4 °F 100% 30.22 in 2.5 mi South 2.3 mph - N/A   Light Drizzle
11:17 PM 55.4 °F - 55.4 °F 100% 30.21 in 2.5 mi South 2.3 mph - N/A   Light Drizzle
11:25 PM 55.4 °F - 55.4 °F 100% 30.21 in 2.5 mi South 3.5 mph - N/A   Light Drizzle
11:27 PM 55.4 °F - 55.4 °F 100% 30.21 in 3.0 mi South 3.5 mph - N/A   Light Drizzle
11:32 PM 55.4 °F - 55.4 °F 100% 30.21 in 3.0 mi South 3.5 mph - N/A   Light Drizzle
11:37 PM 55.4 °F - 55.4 °F 100% 30.20 in 4.0 mi South 2.3 mph - N/A   Light Drizzle
11:58 PM 55.8 °F - 55.4 °F 99% 30.21 in 4.0 mi South 3.5 mph - 0.02 in   Light Drizzle
11:59 PM 55.4 °F - 55.4 °F 100% 30.19 in 4.0 mi South 4.6 mph - N/A   Mostly Cloudy